Flag for Greece Weather past 2 weeks in Kalamaria, Greece

Now
52 °F

Light rain. Fog.


Feels Like: 50 °F
Forecast: 51 / 61 °F
Wind: 6 mph from West

Location: Thessaloniki Airport

Current Time: Mar 27, 2015 at 6:21:59 AM

Latest Report: Mar 27, 2015 at 5:50 AM


Visibility: 2 mi

Pressure: 29.68 "Hg

Humidity: 94%

Dew point: 50 °F

Location of KalamariaLocation

Historic Weather in Kalamaria — Graph

°F

Kalamaria temperature yesterday

Maximum temperature yesterday: 52 °F (at 2:20 PM)
Minimum temperature yesterday: 48 °F (at 3:20 AM)
Average temperature yesterday: 51 °F

Past Weeks' High & Low Weather Summary

 TemperatureHumidityPressure
High59 °F (Mar 14, 2:50 PM)100% (Mar 26, 3:20 AM)30.54 "Hg (Mar 26, 3:20 AM)
Low28 °F (Mar 21, 5:20 AM)17% (Mar 21, 2:20 PM)29.71 "Hg (Mar 27, 3:50 AM)
Average47 °F71%30.16 "Hg
* Reported Mar 12 4:20 AM — Mar 27 4:20 AM, Kalamaria, Weather by CustomWeather, © 2015

Note: Actual official high and low records may vary slightly from our data, if they occured in-between our weather recording intervals... More about our weather records

Advertising

Kalamaria weather history for previous 24 hours

 ConditionsComfort  
Time TempWeatherWind HumidityBarometerVisibility
4:20 AM
Fri, Mar 27
52 °FFog.7 mph94%29.71 "Hg2 mi
3:50 AM52 °FFog.7 mph94%29.71 "Hg2 mi
3:20 AM52 °FFog.3 mph94%29.74 "Hg2 mi
2:50 AM52 °FFog.5 mph94%29.74 "Hg2 mi
2:20 AM52 °FFog.5 mph94%29.77 "Hg1 mi
1:50 AM52 °FFog.3 mph94%29.77 "Hg1 mi
1:20 AM52 °FFog.3 mph94%29.77 "Hg1 mi
12:50 AM52 °FLight rain. Fog.3 mph94%29.80 "Hg1 mi
12:20 AM52 °FLight rain. Fog.5 mph94%29.80 "Hg1 mi
11:50 PM
Thu, Mar 26
52 °FLight rain. Fog.5 mph94%29.83 "Hg1 mi
11:20 PM52 °FLight rain. Fog.5 mph94%29.83 "Hg1 mi
10:50 PM52 °FRain. Fog.3 mph94%29.83 "Hg1 mi
10:20 PM52 °FLight rain. Fog.6 mph94%29.86 "Hg1 mi
9:50 PM52 °FLight rain. Fog.5 mph94%29.86 "Hg1 mi
9:20 PM52 °FLight rain. Fog.5 mph94%29.86 "Hg1 mi
8:50 PM52 °FLight rain. Fog.3 mph94%29.89 "Hg1 mi
8:20 PM52 °FLight rain. Fog.2 mph94%29.89 "Hg1 mi
7:50 PM52 °FLight rain. Fog.No wind94%29.89 "Hg1 mi
7:20 PM52 °FRain. Fog.2 mph94%29.89 "Hg1 mi
6:50 PM52 °FRain. Fog.No wind94%29.92 "Hg1 mi
6:20 PM52 °FRain. Mostly cloudy.No wind94%29.92 "Hg1 mi
5:20 PM52 °FRain. Mostly cloudy.2 mph94%29.95 "Hg1 mi
4:50 PM52 °FRain. Mostly cloudy.2 mph94%29.95 "Hg1 mi
4:20 PM52 °FRain. Mostly cloudy.2 mph94%29.95 "Hg1 mi
3:50 PM52 °FRain. Mostly cloudy.3 mph94%29.95 "Hg1 mi
3:20 PM52 °FRain. Mostly cloudy.3 mph94%29.95 "Hg1 mi
2:50 PM52 °FRain. Mostly cloudy.2 mph94%29.98 "Hg1 mi
2:20 PM52 °FRain. Fog.No wind94%30.01 "Hg1 mi
1:50 PM50 °FHeavy rain. Fog.No wind100%30.01 "Hg1 mi
1:20 PM50 °FLight rain. Fog.2 mph100%30.01 "Hg1 mi
12:50 PM50 °FLight rain. Fog.2 mph94%30.04 "Hg1 mi
12:20 PM50 °FLight rain. Fog.2 mph94%30.04 "Hg1 mi
11:50 AM50 °FLight rain. Fog.2 mph94%30.04 "Hg1 mi
11:20 AM50 °FDrizzle. Fog.3 mph94%30.07 "Hg1 mi
10:50 AM50 °FDrizzle. Fog.3 mph94%30.07 "Hg1 mi
10:20 AM50 °FDrizzle. Fog.2 mph94%30.07 "Hg1 mi
9:50 AM50 °FDrizzle. Fog.3 mph94%30.07 "Hg1 mi
9:20 AM50 °FDrizzle. Fog.3 mph94%30.07 "Hg1 mi
8:50 AM50 °FDrizzle. Fog.6 mph94%30.07 "Hg1 mi
8:20 AM50 °FDrizzle. Fog.5 mph94%30.07 "Hg1 mi
7:50 AM50 °FDrizzle. Fog.3 mph94%30.07 "Hg1 mi
7:20 AM50 °FDrizzle. Fog.3 mph94%30.07 "Hg1 mi
6:50 AM50 °FDrizzle. Fog.6 mph94%30.04 "Hg1 mi
6:20 AM50 °FDrizzle. Fog.5 mph94%30.04 "Hg1 mi
Weather by CustomWeather, © 2015

See weather overviewHow to use our weather pages